When you browse on this site, cookies collect data to enhance your experience and personalize the content and advertising you see.
Visit our Privacy Policy to learn more. By continuing to use the site, you agree to this use of cookies and data.
  • In Hungary
  • List of Countries
  • For 7 days
  • Water Temperature
  • Weather Map
  • News
  • Weather Widgets
  • user-avatar
    Login

    Hourly Weather Triggiano

    Today, 14 December, Saturday

    Time Temperature Precipitation Wind Pressure Humidity
    00:00 +10°C° 0.1 mm 9 mps 734 mmHg 68%
    01:00 +10°C° 0.1 mm 8 mps 734 mmHg 62%
    02:00 +9°C° 0.2 mm 8 mps 734 mmHg 65%
    03:00 +9°C° 0.2 mm 8 mps 735 mmHg 69%
    04:00 +7°C° 0.2 mm 8 mps 735 mmHg 72%
    05:00 +7°C° 0.3 mm 8 mps 736 mmHg 74%
    06:00 +6°C° 0.3 mm 8 mps 738 mmHg 76%
    07:00 +6°C° 0.3 mm 8 mps 739 mmHg 78%
    08:00 +7°C° 0 mm 9 mps 740 mmHg 76%
    09:00 +10°C° 0 mm 9 mps 742 mmHg 74%
    10:00 +11°C° 0 mm 10 mps 743 mmHg 72%
    11:00 +11°C° 0 mm 10 mps 744 mmHg 70%
    12:00 +12°C° 0 mm 10 mps 745 mmHg 68%
    13:00 +12°C° 0 mm 11 mps 745 mmHg 66%
    14:00 +12°C° 0 mm 10 mps 746 mmHg 67%
    15:00 +11°C° 0 mm 9 mps 747 mmHg 67%
    16:00 +11°C° 0 mm 8 mps 748 mmHg 67%
    17:00 +11°C° 0 mm 7 mps 749 mmHg 66%
    18:00 +11°C° 0 mm 7 mps 750 mmHg 65%
    19:00 +10°C° 0 mm 6 mps 751 mmHg 63%
    20:00 +10°C° 0 mm 6 mps 752 mmHg 61%
    21:00 +10°C° 0 mm 5 mps 753 mmHg 59%
    22:00 +10°C° 0 mm 5 mps 753 mmHg 57%
    23:00 +10°C° 0 mm 5 mps 754 mmHg 57%

    Tomorrow, 15 December, Sunday

    Time Temperature Precipitation Wind Pressure Humidity
    00:00 +11°C° 0 mm 4 mps 754 mmHg 56%
    01:00 +11°C° 0 mm 4 mps 754 mmHg 56%
    02:00 +10°C° 0 mm 3 mps 755 mmHg 56%
    03:00 +10°C° 0 mm 2 mps 755 mmHg 56%
    04:00 +10°C° 0 mm 2 mps 755 mmHg 56%
    05:00 +10°C° 0 mm 2 mps 756 mmHg 58%
    06:00 +11°C° 0 mm 1 mps 756 mmHg 59%
    07:00 +11°C° 0 mm 1 mps 756 mmHg 60%
    08:00 +12°C° 0 mm 1 mps 757 mmHg 57%
    09:00 +14°C° 0 mm 2 mps 757 mmHg 53%
    10:00 +15°C° 0 mm 2 mps 758 mmHg 49%
    11:00 +16°C° 0 mm 2 mps 758 mmHg 48%
    12:00 +17°C° 0 mm 3 mps 758 mmHg 47%
    13:00 +17°C° 0 mm 3 mps 758 mmHg 46%
    14:00 +16°C° 0 mm 3 mps 758 mmHg 52%
    15:00 +15°C° 0 mm 4 mps 758 mmHg 58%
    16:00 +14°C° 0 mm 4 mps 758 mmHg 64%
    17:00 +13°C° 0 mm 4 mps 759 mmHg 67%
    18:00 +13°C° 0 mm 4 mps 759 mmHg 71%
    19:00 +12°C° 0 mm 4 mps 760 mmHg 75%
    20:00 +12°C° 0 mm 4 mps 760 mmHg 77%
    21:00 +12°C° 0 mm 3 mps 760 mmHg 79%
    22:00 +12°C° 0 mm 3 mps 761 mmHg 80%
    23:00 +12°C° 0 mm 3 mps 761 mmHg 84%

    Day after tomorrow, 16 December, Monday

    Time Temperature Precipitation Wind Pressure Humidity
    00:00 +13°C° 0 mm 2 mps 761 mmHg 88%
    01:00 +13°C° 0 mm 2 mps 761 mmHg 92%
    02:00 +13°C° 0 mm 2 mps 761 mmHg 92%
    03:00 +13°C° 0 mm 2 mps 761 mmHg 93%
    04:00 +13°C° 0 mm 2 mps 761 mmHg 94%
    05:00 +13°C° 0 mm 2 mps 761 mmHg 94%
    06:00 +12°C° 0 mm 3 mps 761 mmHg 94%
    07:00 +12°C° 0 mm 3 mps 761 mmHg 94%
    08:00 +13°C° 0 mm 3 mps 762 mmHg 89%
    09:00 +14°C° 0 mm 4 mps 762 mmHg 84%
    10:00 +15°C° 0 mm 4 mps 762 mmHg 79%
    11:00 +15°C° 0 mm 4 mps 762 mmHg 77%
    12:00 +16°C° 0 mm 5 mps 761 mmHg 75%
    13:00 +17°C° 0 mm 5 mps 761 mmHg 74%
    14:00 +16°C° 0 mm 6 mps 761 mmHg 77%
    15:00 +16°C° 0 mm 6 mps 761 mmHg 80%
    16:00 +15°C° 0 mm 6 mps 761 mmHg 82%
    17:00 +15°C° 0 mm 6 mps 761 mmHg 84%
    18:00 +15°C° 0 mm 6 mps 761 mmHg 86%
    19:00 +14°C° 0 mm 6 mps 761 mmHg 88%
    20:00 +14°C° 0 mm 6 mps 761 mmHg 88%
    21:00 +14°C° 0 mm 6 mps 761 mmHg 88%
    22:00 +14°C° 0 mm 7 mps 761 mmHg 88%
    23:00 +14°C° 0 mm 6 mps 761 mmHg 88%

    17 December, Tuesday

    Time Temperature Precipitation Wind Pressure Humidity
    00:00 +14°C° 0 mm 6 mps 761 mmHg 89%
    01:00 +14°C° 0 mm 6 mps 761 mmHg 89%
    02:00 +14°C° 0 mm 6 mps 761 mmHg 89%
    03:00 +14°C° 0 mm 6 mps 761 mmHg 90%
    04:00 +14°C° 0 mm 6 mps 761 mmHg 90%
    05:00 +14°C° 0 mm 6 mps 761 mmHg 90%
    06:00 +14°C° 0 mm 7 mps 761 mmHg 89%
    07:00 +14°C° 0 mm 7 mps 761 mmHg 89%
    08:00 +14°C° 0 mm 7 mps 761 mmHg 86%
    09:00 +15°C° 0 mm 7 mps 761 mmHg 83%
    10:00 +16°C° 0 mm 7 mps 761 mmHg 80%
    11:00 +16°C° 0 mm 7 mps 761 mmHg 78%
    12:00 +16°C° 0 mm 7 mps 760 mmHg 76%
    13:00 +16°C° 0 mm 7 mps 760 mmHg 74%
    14:00 +16°C° 0 mm 8 mps 760 mmHg 76%
    15:00 +15°C° 0 mm 8 mps 760 mmHg 78%
    16:00 +15°C° 0 mm 8 mps 760 mmHg 81%
    17:00 +15°C° 0 mm 8 mps 760 mmHg 81%
    18:00 +15°C° 0 mm 8 mps 760 mmHg 81%
    19:00 +13°C° 0 mm 8 mps 760 mmHg 82%
    20:00 +13°C° 0 mm 8 mps 760 mmHg 82%
    21:00 +13°C° 0 mm 8 mps 760 mmHg 82%
    22:00 +13°C° 0 mm 8 mps 760 mmHg 82%
    23:00 +13°C° 0 mm 8 mps 760 mmHg 82%

    18 December, Wednesday

    Time Temperature Precipitation Wind Pressure Humidity
    00:00 +13°C° 0 mm 8 mps 760 mmHg 82%
    01:00 +15°C° 0 mm 8 mps 760 mmHg 81%
    02:00 +15°C° 0 mm 8 mps 759 mmHg 82%
    03:00 +15°C° 0 mm 8 mps 759 mmHg 83%
    04:00 +15°C° 0 mm 8 mps 759 mmHg 84%
    05:00 +15°C° 0 mm 8 mps 759 mmHg 83%
    06:00 +15°C° 0 mm 8 mps 759 mmHg 82%
    07:00 +15°C° 0 mm 9 mps 759 mmHg 80%
    08:00 +16°C° 0 mm 9 mps 759 mmHg 79%
    09:00 +16°C° 0 mm 10 mps 759 mmHg 78%
    10:00 +17°C° 0 mm 10 mps 759 mmHg 76%
    11:00 +17°C° 0 mm 10 mps 759 mmHg 74%
    12:00 +17°C° 0 mm 10 mps 759 mmHg 72%
    13:00 +18°C° 0 mm 10 mps 758 mmHg 69%
    14:00 +17°C° 0 mm 10 mps 758 mmHg 71%
    15:00 +17°C° 0 mm 10 mps 758 mmHg 72%
    16:00 +16°C° 0 mm 10 mps 758 mmHg 74%
    17:00 +16°C° 0 mm 9 mps 758 mmHg 76%
    18:00 +16°C° 0 mm 9 mps 758 mmHg 78%
    19:00 +15°C° 0 mm 9 mps 758 mmHg 80%
    20:00 +15°C° 0 mm 9 mps 758 mmHg 80%
    21:00 +14°C° 0 mm 10 mps 757 mmHg 81%
    22:00 +14°C° 0 mm 11 mps 757 mmHg 81%
    23:00 +14°C° 0.1 mm 11 mps 757 mmHg 81%

    19 December, Thursday

    Time Temperature Precipitation Wind Pressure Humidity
    00:00 +14°C° 0.1 mm 11 mps 757 mmHg 81%
    01:00 +14°C° 0.1 mm 11 mps 756 mmHg 80%
    02:00 +14°C° 0 mm 11 mps 756 mmHg 80%
    03:00 +14°C° 0 mm 10 mps 755 mmHg 80%
    04:00 +14°C° 0 mm 10 mps 755 mmHg 80%
    05:00 +14°C° 0.1 mm 10 mps 755 mmHg 78%
    06:00 +15°C° 0.1 mm 9 mps 754 mmHg 77%
    07:00 +15°C° 0.1 mm 9 mps 754 mmHg 75%
    08:00 +15°C° 0 mm 9 mps 754 mmHg 72%
    09:00 +16°C° 0 mm 8 mps 754 mmHg 69%
    10:00 +16°C° 0 mm 8 mps 755 mmHg 66%
    11:00 +16°C° 0 mm 7 mps 754 mmHg 63%
    12:00 +17°C° 0 mm 7 mps 754 mmHg 60%
    13:00 +17°C° 0 mm 6 mps 754 mmHg 58%
    14:00 +17°C° 0 mm 6 mps 754 mmHg 60%
    15:00 +16°C° 0 mm 5 mps 754 mmHg 61%
    16:00 +16°C° 0 mm 5 mps 754 mmHg 63%
    17:00 +15°C° 0 mm 5 mps 754 mmHg 67%
    18:00 +15°C° 0 mm 5 mps 754 mmHg 70%
    19:00 +14°C° 0 mm 5 mps 754 mmHg 73%
    20:00 +14°C° 0 mm 5 mps 755 mmHg 71%
    21:00 +14°C° 0 mm 5 mps 755 mmHg 69%
    22:00 +14°C° 0 mm 5 mps 755 mmHg 67%
    23:00 +14°C° 0 mm 5 mps 755 mmHg 70%
    Show more